Location: Unspecified
(41.5000°N, 0.0000°E)
Time: 18:31:39
(UTC+00:00)

A-11 Canister half - Pass Details

Date: 04 July 2019
Orbit: 1526 x 1683 km, 47.3° (Epoch: 19 August)

Event Time Altitude Azimuth Distance (km) Brightness Sun altitude
Exits shadow 22:17:05 13° 106° (ESE) 3,604 10.6 -21.0°
Drops below altitude 10° 22:18:54 10° 95° (E) 3,803 10.8 -21.2°
Sets 22:23:57 0° 73° (ENE) 4,759 11.5 -21.6°
